STARLINK-2523, 48306

Orbit data source: Space-Track

STARLINK-2523, 48306 is a payload satellite owned by SpaceX/Seattle (US) in LEO that was launched on Thu, 29 Apr 2021 UTC via an FALCON 9 launch vehicle from the Air Force Eastern Test Range (AFETR). Payload-class satellites include a variety of spacecraft equipped with specific instruments for various scientific and technological missions. These include communications satellites like Starlink; space stations such as the ISS; scientific satellites like the Hubble; Earth observation satellites from companies like Planet Labs, Umbra, and HawkEye 360; GPS; miniature CubeSats for education and research; and military/defense satellites.

Loading next visibility...
Identifier
48306, 2021-036AG
Orbit
LEO
Country
Flag of USUS
Related business
Manufacturer
SpaceX/Seattle
Mission
Operational Commercial Communications
Bus & Motor
STARLINK, Unknown motor
Mass
260 kg wet, ~248 kg dry
Launch date (UTC)
2021-04-29 (5 years ago)
Launch vehicle
FALCON 9
Launch site
Air Force Eastern Test Range (AFETR)
Object type
Payload
Rocket body
Debris
Shape & HBR
Box + 1 Pan, 10.1 m
Radar Cross Section
13.562 m², Large (>1 m²)

Expand to show TLE details & history
Last TLE update: 22 hours ago

TLE from 22 hours ago
0 STARLINK-2523
1 48306U 21036AG  26061.54270754  .00005050  00000-0  35778-3 0  9995
2 48306  53.0536 123.7044 0001311  81.4198 278.6939 15.06389632267094
Epoch: 2026-03-02T13:01Z
TLE epoch observation values (Epoch: 2026-03-02T13:01:29.931Z)
Latitude
-0.00006°
Longitude
127.99502°
Altitude
547.985 km
Speed
7.589 km/s
True Right ascension
08h 14m 49s
True Declination
0° 00' 00"
Sunlit
Object was in full shadow at epoch
Visualization orbit readout
Latitude
Unknown
Longitude
Unknown
Altitude
Unknown
Speed
Unknown
Apparent Right ascension
Unknown
Apparent Declination
Unknown
Sunlit
N/A
Visualization observer readout
Local Sidereal Time
15:11:28
Azimuth
Unknown
Elevation
Unknown
Doppler factor
Unknown
Orbital elements
Apogee altitude
548.422 km
Perigee altitude
546.606 km
Semi-major axis
6,925.651 km
Eccentricity
0.00013
Inclination
53.0536°
RAAN
123.7044°
Arg. of periapsis
81.4198°
True anomaly
278.67905°
Mean anomaly
278.6939°
Eccentric anomaly
278.68647°
Mean motion
3.76576 °/min
Orbital period
95.6 mins
BSTAR
0.00035778
Loading maneuver chart data...
Computing Atmospheric mass density...
Loading historical data...
Loading historical data...
Loading historical data...
Loading historical data...
Loading historical data...
Loading historical data...
Loading historical data...

Documentation

Showing up to 5 results
|